Location: Laas
(43.4693°N, 0.3073°E)
Time: 22:36:49
(UTC+00:00)

Envisat - Visible Passes

Search period start: 22 January 2021 00:00
Search period end: 01 February 2021 00:00
Orbit: 764 x 766 km, 98.1° (Epoch: 22 January)

Date Brightness Start Highest point End Pass type
(mag) Time Alt. Az. Time Alt. Az. Time Alt. Az.
22 Jan 5.3 04:49:17 10° NE 04:53:19 23° E 04:57:20 10° SE visible
22 Jan 3.3 06:27:42 10° N 06:32:31 44° WNW 06:37:18 10° SW visible
22 Jan 5.2 17:43:55 10° SSW 17:48:19 30° W 17:52:47 10° NW visible
23 Jan 6.3 04:15:26 10° E 04:16:03 10° E 04:16:41 10° E visible
23 Jan 3.0 05:50:41 10° NNE 05:55:48 87° ESE 06:00:54 10° SSW visible
24 Jan 4.4 05:14:08 10° NNE 05:18:54 40° E 05:23:39 10° SSE visible
24 Jan 6.0 18:10:38 10° SW 18:13:58 17° W 18:17:20 10° NW visible
25 Jan 5.6 04:38:16 10° NE 04:41:48 19° E 04:45:18 10° SE visible
25 Jan 3.1 06:16:11 10° N 06:21:09 55° WNW 06:26:06 10° SSW visible
25 Jan 4.8 17:32:10 10° SSW 17:36:51 37° W 17:41:34 10° NNW visible
26 Jan 3.3 05:39:18 10° NNE 05:44:23 69° ESE 05:49:27 10° S visible
27 Jan 4.8 05:02:53 10° NNE 05:07:25 32° E 05:11:55 10° SSE visible
27 Jan 3.7 06:41:54 10° N 06:46:25 33° WNW 06:50:54 10° SW visible
27 Jan 5.8 17:58:33 10° SW 18:02:26 22° W 18:06:22 10° NW visible
28 Jan 5.9 04:27:28 10° NE 04:30:15 15° E 04:33:02 10° ESE visible
28 Jan 2.9 06:04:42 10° N 06:09:46 70° WNW 06:14:49 10° SSW visible
29 Jan 3.7 05:27:57 10° NNE 05:32:58 55° E 05:37:55 10° S visible
29 Jan 6.3 18:26:01 10° WSW 18:28:08 13° W 18:30:17 10° WNW visible
30 Jan 5.2 04:51:45 10° NE 04:55:56 25° E 05:00:05 10° SSE visible
30 Jan 3.4 06:30:20 10° N 06:35:04 41° WNW 06:39:48 10° SW visible
30 Jan 5.4 17:46:38 10° SSW 17:50:56 27° W 17:55:16 10° NW visible
31 Jan 6.2 04:17:08 10° ENE 04:18:42 11° E 04:20:15 10° ESE visible
31 Jan 2.9 05:53:16 10° NNE 05:58:23 87° WNW 06:03:28 10° SSW visible
